Flag for Madagascar Weather past 2 weeks in Antananarivo, Madagascar

Now
73 °F

Passing clouds.


Feels Like: 77 °F
Forecast: 56 / 74 °F
Wind: 7 mph from Southeast

Location: Antananarivo / Ivato

Current Time: Aug 30, 2014 at 11:27:14 AM

Latest Report: Aug 30, 2014 at 11:00 AM


Visibility: N/A

Pressure: 30.27 "Hg

Humidity: 57%

Dew point: 57 °F

Location of AntananarivoLocation

Historic Weather in Antananarivo — Graph

°F

Antananarivo temperature yesterday

Maximum temperature yesterday: 77 °F (at 2:30 PM)
Minimum temperature yesterday: 61 °F (at 9:30 PM)
Average temperature yesterday: 66 °F

Past Weeks' High & Low Weather Summary

 TemperatureHumidityPressure
High84 °F (Aug 26, 3:00 PM)100% (Aug 15, 7:00 PM)30.39 "Hg (Aug 15, 7:00 PM)
Low45 °F (Aug 19, 5:30 AM)32% (Aug 26, 4:00 PM)30.01 "Hg (Aug 23, 2:30 PM)
Average63 °F83%30.22 "Hg
* Reported Aug 15 11:30 AM — Aug 30 10:30 AM, Antananarivo, Weather by CustomWeather, © 2014

Note: Actual official high and low records may vary slightly from our data, if they occured in-between our weather recording intervals... More about our weather records

Advertising

Antananarivo weather history for previous 24 hours

 ConditionsComfort  
Time TempWeatherWind HumidityBarometerVisibility
10:30 AM
Aug 30
72 °FPassing clouds.7 mph65%30.27 "HgN/A
10:00 AM68 °FPassing clouds.7 mph73%30.27 "HgN/A
9:30 AM66 °FPassing clouds.7 mph78%30.30 "HgN/A
9:00 AM64 °FPassing clouds.6 mph83%30.30 "HgN/A
8:30 AM63 °FPassing clouds.7 mph88%30.30 "HgN/A
8:00 AM61 °FScattered clouds.7 mph94%30.30 "HgN/A
7:30 AM59 °FPassing clouds.7 mph100%30.27 "Hg6 mi
7:00 AM57 °FPassing clouds.7 mph100%30.27 "Hg6 mi
6:30 AM54 °FPassing clouds.5 mph100%30.27 "HgN/A
6:00 AM52 °FPassing clouds.6 mph100%30.24 "HgN/A
5:30 AM54 °FPassing clouds.6 mph100%30.24 "HgN/A
5:00 AM55 °FPassing clouds.6 mph100%30.24 "HgN/A
4:30 AM55 °FPassing clouds.3 mph100%30.24 "HgN/A
4:00 AM55 °FPassing clouds.5 mph100%30.24 "HgN/A
3:30 AM55 °FPassing clouds.3 mph100%30.24 "HgN/A
3:00 AM55 °FPassing clouds.6 mph100%30.24 "HgN/A
2:30 AM57 °FPassing clouds.5 mph100%30.24 "HgN/A
2:00 AM57 °FPassing clouds.8 mph100%30.24 "HgN/A
1:30 AM57 °FPassing clouds.6 mph100%30.27 "HgN/A
1:00 AM57 °FPassing clouds.7 mph100%30.27 "HgN/A
12:30 AM59 °FPassing clouds.8 mph100%30.27 "HgN/A
12:00 AM61 °FPassing clouds.6 mph100%30.27 "HgN/A
10:00 PM
Aug 29
61 °FPassing clouds.5 mph100%30.27 "HgN/A
9:30 PM61 °FPassing clouds.8 mph100%30.27 "HgN/A
9:00 PM63 °FPassing clouds.8 mph100%30.27 "HgN/A
8:30 PM63 °FPassing clouds.8 mph100%30.27 "HgN/A
8:00 PM63 °FPassing clouds.9 mph100%30.24 "HgN/A
7:30 PM64 °FPassing clouds.9 mph94%30.24 "HgN/A
7:00 PM64 °FPassing clouds.8 mph88%30.21 "HgN/A
6:30 PM64 °FPassing clouds.8 mph88%30.21 "HgN/A
6:00 PM66 °FPassing clouds.9 mph83%30.21 "HgN/A
5:30 PM68 °FPassing clouds.15 mph78%30.21 "HgN/A
5:00 PM72 °FPassing clouds.13 mph73%30.18 "HgN/A
4:30 PM73 °FScattered clouds.10 mph69%30.18 "HgN/A
4:00 PM75 °FScattered clouds.9 mph65%30.18 "HgN/A
3:30 PM75 °FScattered clouds.9 mph65%30.18 "HgN/A
3:00 PM77 °FScattered clouds.7 mph65%30.18 "HgN/A
2:30 PM77 °FScattered clouds.9 mph61%30.18 "HgN/A
2:00 PM75 °FScattered clouds.9 mph65%30.18 "HgN/A
1:30 PM75 °FScattered clouds.9 mph69%30.18 "HgN/A
1:00 PM75 °FPartly sunny.7 mph69%30.21 "HgN/A
12:30 PM73 °FPartly sunny.9 mph74%30.21 "HgN/A
12:00 PM73 °FPartly sunny.7 mph74%30.21 "HgN/A
11:00 AM68 °FPartly sunny.3 mph88%30.24 "HgN/A
Weather by CustomWeather, © 2014

See weather overviewHow to use our weather pages